TimeAKST,TemperatureF,Dew PointF,Humidity,Sea Level PressureIn,VisibilityMPH,Wind Direction,Wind SpeedMPH,Gust SpeedMPH,PrecipitationIn,Events,Conditions,WindDirDegrees,DateUTC
12:53 AM,-26.0,-31.0,77,30.24,10.0,East,3.5,-,N/A,,Clear,100,2013-12-25 09:53:00
1:53 AM,-26.0,-32.1,73,30.24,10.0,ENE,5.8,-,N/A,,Clear,60,2013-12-25 10:53:00
2:53 AM,-25.1,-29.9,78,30.24,10.0,NE,4.6,-,N/A,,Clear,40,2013-12-25 11:53:00
3:53 AM,-26.0,-32.1,73,30.24,10.0,NE,8.1,-,N/A,,Clear,50,2013-12-25 12:53:00
4:53 AM,-26.0,-31.0,77,30.24,10.0,NE,6.9,-,N/A,,Clear,50,2013-12-25 13:53:00
5:53 AM,-23.1,-27.9,78,30.23,10.0,NE,5.8,-,N/A,,Clear,40,2013-12-25 14:53:00
6:53 AM,-22.0,-27.9,74,30.21,10.0,NE,4.6,-,N/A,,Clear,50,2013-12-25 15:53:00
7:53 AM,-22.0,-27.9,74,30.20,10.0,ENE,4.6,-,N/A,,Clear,60,2013-12-25 16:53:00
8:53 AM,-20.9,-27.0,73,30.20,10.0,Calm,Calm,-,N/A,,Clear,0,2013-12-25 17:53:00
9:53 AM,-24.0,-29.0,77,30.22,10.0,SW,4.6,-,N/A,,Clear,230,2013-12-25 18:53:00
10:53 AM,-24.0,-29.0,77,30.22,10.0,Calm,Calm,-,N/A,,Clear,0,2013-12-25 19:53:00
11:53 AM,-23.1,-29.0,74,30.23,10.0,Calm,Calm,-,N/A,,Clear,0,2013-12-25 20:53:00
12:53 PM,-22.0,-27.9,74,30.23,10.0,Calm,Calm,-,N/A,,Clear,0,2013-12-25 21:53:00
1:53 PM,-18.9,-25.1,74,30.23,10.0,NE,4.6,-,N/A,,Clear,40,2013-12-25 22:53:00
2:53 PM,-17.0,-23.1,74,30.22,10.0,NNE,4.6,-,N/A,,Clear,30,2013-12-25 23:53:00
3:53 PM,-17.0,-23.1,74,30.21,10.0,NNE,3.5,-,N/A,,Clear,30,2013-12-26 00:53:00
4:53 PM,-18.0,-24.0,74,30.20,10.0,Calm,Calm,-,N/A,,Clear,0,2013-12-26 01:53:00
5:53 PM,-20.0,-26.0,74,30.20,10.0,Calm,Calm,-,N/A,,Clear,0,2013-12-26 02:53:00
6:53 PM,-18.9,-26.0,70,30.20,10.0,Calm,Calm,-,N/A,,Clear,0,2013-12-26 03:53:00
7:53 PM,-20.0,-25.1,78,30.22,10.0,East,3.5,-,N/A,,Clear,100,2013-12-26 04:53:00
8:53 PM,-20.0,-26.0,74,30.22,10.0,ENE,3.5,-,N/A,,Clear,60,2013-12-26 05:53:00
9:53 PM,-20.0,-27.0,70,30.22,10.0,Calm,Calm,-,N/A,,Clear,0,2013-12-26 06:53:00
10:53 PM,-20.9,-26.0,77,30.22,10.0,Variable,5.8,-,N/A,,Clear,0,2013-12-26 07:53:00
11:53 PM,-20.9,-26.0,77,30.22,8.0,Variable,4.6,-,N/A,,Clear,0,2013-12-26 08:53:00